Regional Weather Roundup
Issued by NWS San Angelo, TX

Home | Current Version | Previous Version | Text Only | Print | Product List | Glossary On
Versions: 1 2 3 4 5 6 7 8 9 10 11 12 13 14 15 16 17 18 19 20 21 22 23 24 25 26 27 28 29 30 31 32 33 34 35 36 37 38 39 40 41 42 43 44 45 46 47 48 49 50
719
ASUS44 KSJT 281510
RWRSJT
WEST CENTRAL TEXAS REGIONAL WEATHER ROUNDUP
NATIONAL WEATHER SERVICE SAN ANGELO TX
900 AM CST TUE FEB 28 2017

NOTE: "FAIR" INDICATES FEW OR NO CLOUDS BELOW 12,000 FEET WITH NO
SIGNIFICANT WEATHER AND/OR OBSTRUCTIONS TO VISIBILITY.

TXZ049-054-064>066-071>073-076>078-098-099-113-114-127-128-139-140-
154-155-168>170-281600
...LOCATIONS ACROSS WEST CENTRAL TEXAS...

CITY           SKY/WX    TMP DP  RH WIND       PRES   REMARKS
SAN ANGELO     PTSUNNY   72  64  76 SW10G21   29.93R HAZE
ABILENE        CLOUDY    65  62  90 SW12      29.92R
DYESS AFB      PTSUNNY   67  62  86 W3        29.91R
JUNCTION       CLOUDY    68  63  84 SW7       29.96R
SWEETWATER     MOSUNNY   65  60  86 S17       29.94R
BROWNWOOD      CLOUDY    66  64  94 CALM      29.94R FOG
COLEMAN        CLOUDY    66  63  88 SW3       29.94R FOG
SONORA         PTSUNNY   70  64  83 S10G18    30.01R
OZONA          FAIR      64  59  82 MISG      30.01R
BRADY          NOT AVBL
$$

TEXAS PANHANDLE/OKLAHOMA PANHANDLE

CITY           SKY/WX    TMP DP  RH WIND       PRES   REMARKS
AMARILLO       CLOUDY    59  28  30 SW16      29.81S
BORGER         CLOUDY    62  28  27 SW18G31   29.75S
CANADIAN       CLOUDY    65  31  28 SW13G18   29.72S
DALHART        CLOUDY    50  29  44 S13       29.76R
DUMAS          CLOUDY    54  28  36 SW21      29.75S
GUYMON         NOT AVBL
HEREFORD       CLOUDY    58  29  32 SW16G22   29.83S
PAMPA          CLOUDY    63  28  27 SW28      29.77R
PERRYTON       CLOUDY    58  29  33 SW15      29.71S
$$

SOUTHERN PANHANDLE/SOUTH PLAINS/ROLLING PLAINS

CITY           SKY/WX    TMP DP  RH WIND       PRES   REMARKS
LUBBOCK        CLOUDY    58  28  32 SW7       29.88R
SNYDER         CLOUDY    58  50  76 S9        29.93R
CHILDRESS      CLOUDY    63  28  26 SW13      29.83R
SEMINOLE       PTSUNNY   56  30  37 SW10      29.93S
$$

PERMIAN BASIN

CITY           SKY/WX    TMP DP  RH WIND       PRES   REMARKS
MIDLAND        PTSUNNY   59  45  59 S8        29.93R
ODESSA         CLOUDY    59  39  47 S10       29.94R
WINK           CLOUDY    53  26  35 SE3       29.91S
$$

FAR WEST/SOUTHWEST MOUNTAINS/TRANS PECOS

CITY           SKY/WX    TMP DP  RH WIND       PRES   REMARKS
ALPINE         CLOUDY    64  15  15 SW14G20   30.08S
DRYDEN           N/A     63  39  41 W8        29.96R
EL PASO        PTSUNNY   55  16  21 S7        29.95R
FORT STOCKTON  CLOUDY    65  24  21 SW10      29.96R
GUADALUPE PASS CLOUDY    54  19  25 SW25      29.99R
MARFA          MOSUNNY   55  19  24 CALM      30.07R
PECOS          PTSUNNY   54  25  31 E3        29.92S
$$

DALLAS/FORT WORTH METROPLEX

CITY           SKY/WX    TMP DP  RH WIND       PRES   REMARKS
DFW AIRPORT    CLOUDY    72  66  81 S13       29.91R HAZE
FTW MEACHAM    CLOUDY    72  64  76 S14G28    29.91R
DAL-EXECUTIVE  CLOUDY    71  67  87 VRB7G17   29.92R FOG
GRAND PRAIRIE  PTSUNNY   70  64  83 S8        29.93R HAZE
ADDISON        CLOUDY    70  64  83 S13G20    29.92S HAZE
MESQUITE       CLOUDY    70  66  88 SE8       29.93R FOG
LANCASTER      CLOUDY    70  66  87 S10       29.93F FOG
$$

NORTH CENTRAL TEXAS

CITY           SKY/WX    TMP DP  RH WIND       PRES   REMARKS
SHRMAN/DENISON PTSUNNY   68  64  88 S14       29.93R FOG
GAINESVILLE    CLOUDY    67  63  89 S10       29.93S FOG
BRIDGEPORT     CLOUDY    69  63  80 S8        29.92R
DENTON         CLOUDY    70  65  84 S10       29.91R
WAXAHACHIE     CLOUDY    69  68  96 S12       29.93S FOG
GRANBURY       CLOUDY    71  64  78 S8        29.92R
$$

WESTERN NORTH TEXAS

CITY           SKY/WX    TMP DP  RH WIND       PRES   REMARKS
WICHITA FALLS  CLOUDY    65  60  84 S20       29.85R
VERNON         PTSUNNY   58  43  57 S7        29.83S
BRECKENRIDGE   PTSUNNY   69  63  81 S9        29.91S
COMANCHE       CLOUDY    68  65  90 SW12G17   29.94R
$$

CENTRAL AND SOUTH CENTRAL TEXAS

CITY           SKY/WX    TMP DP  RH WIND       PRES   REMARKS
AUSTIN/BERGSTM PTSUNNY   74  69  85 S9        29.95R HAZE
WACO           CLOUDY    70  68  93 S14       29.92S FOG
HILLSBORO      CLOUDY    70  67  90 S10       29.93S FOG
TEMPLE         PTSUNNY   72  69  90 S17       29.93S FOG
KILLEEN-GRAY   CLOUDY    71  65  83 S14       29.92R
FORT HOOD      CLOUDY    70  65  86 S9        29.91R
GEORGETOWN     PTSUNNY   73  66  78 S13       29.93R FOG
LAGO VISTA     PTSUNNY   72  67  86 S12G18    29.95S HAZE
SAN MARCOS     CLOUDY    73  68  83 S12       29.96R FOG
NEW BRAUNFELS  CLOUDY    73  69  87 S8        29.95R FOG
RANDOLPH AFB   PTSUNNY   71  71 100 S7        29.96R FOG
SAN ANTONIO    CLOUDY    71  68  90 S7        29.97R FOG
STINSON        CLOUDY    73  69  87 SE6       29.94R FOG
PLEASANTON     NOT AVBL
LA GRANGE      CLOUDY    75  71  85 S14       29.95R
GIDDINGS       PTSUNNY   73  67  81 S14G20    29.98R HAZE
$$

EAST TEXAS

CITY           SKY/WX    TMP DP  RH WIND       PRES   REMARKS
PARIS          PTSUNNY   68  64  88 S10       29.95R
CLARKSVILLE    NOT AVBL
TYLER          CLOUDY    73  69  87 S20       29.95S FOG
LONGVIEW       CLOUDY    74  70  87 S13G24    29.96S FOG
PALESTINE      CLOUDY    73  70  90 SE12      29.98R FOG
NACOGDOCHES    CLOUDY    73  66  78 S12       29.99R
$$

TEXAS HILL COUNTRY AND EDWARDS PLATEAU

CITY           SKY/WX    TMP DP  RH WIND       PRES   REMARKS
LLANO          CLOUDY    72  64  78 CALM      29.96F
HORSESHOE BAY    N/A     72  64  77 S9G17     29.94S
KERRVILLE      CLOUDY    66  65  95 S5        29.97S FOG
FREDERICKSBRG  CLOUDY    67  63  86 S9        29.97R FOG
ROCKSPRINGS    CLOUDY    64  64 100 S10       30.00S FOG
HONDO          CLOUDY    71  68  90 SE5       29.96R FOG
UVALDE         CLOUDY    68  67  96 CALM      29.97R FOG
DEL RIO        CLOUDY    69  67  93 SE7       29.94R FOG
$$

SOUTHEAST TEXAS

CITY           SKY/WX    TMP DP  RH WIND       PRES   REMARKS
COLLEGE STN    PTSUNNY   74  69  85 S17       29.97R
CALDWELL       NOT AVBL
CROCKETT       MOSUNNY   73  68  83 S10G16    30.01S HAZE
BRENHAM        CLOUDY    76  70  82 S13G18    29.98R
HUNTSVILLE     PTSUNNY   75  67  76 S12G20    29.99R
CONROE         CLOUDY    74  68  81 S18       30.01R
HOUSTON BUSH   CLOUDY    74  67  78 S12G17    30.01R
HOUSTON HOBBY  CLOUDY    73  69  87 S12G20    30.02R
PERLAND        CLOUDY    75  69  81 S12       30.04R
WHARTON        CLOUDY    73  68  83 S14       30.02R
$$

THE UPPER TEXAS COAST

CITY           SKY/WX    TMP DP  RH WIND       PRES   REMARKS
ORANGE         CLOUDY    73  70  88 S14G20    30.08R
PORT ARTHUR    CLOUDY    75  68  78 S15       30.05R
GALVESTON      CLOUDY    73  70  90 SE12      30.04R
ANGLETON       CLOUDY    75  71  87 S17G23    30.02R
BAY CITY       CLOUDY    73  72  96 S14       30.01S FOG
$$

TEXAS COASTAL BEND, RIO GRANDE PLAINS DEEP SOUTH TEXAS

CITY           SKY/WX    TMP DP  RH WIND       PRES   REMARKS
VICTORIA       CLOUDY    75  70  84 S20G26    29.98R
BEEVILLE       CLOUDY    74  74 100 S10       29.96R
ROCKPORT       PTSUNNY   75  70  84 SE12      29.97R
PORT ARANSAS   MOSUNNY   71  70  96 SE7       29.98R FOG
PORT LAVACA    CLOUDY    73  73  99 SE6       29.99R FOG
CORPUS CHRISTI PTSUNNY   76  72  87 SE22      29.95R
KINGSVILLE NAS CLOUDY    77  73  87 SE20G28   29.94R FOG
COTULLA        CLOUDY    75  68  78 SE5       29.94R HAZE
LAREDO         CLOUDY    75  69  81 S14G21    29.93R
BROWNSVILLE    PTSUNNY   78  72  81 S20G28    29.97R
PORT ISABEL    PTSUNNY   77  72  84 S21       29.95R
HEBBRONVILLE   CLOUDY    74  67  79 S12       29.95R HAZE
MCALLEN        PTSUNNY   78  70  76 SE20G26   29.93R
WESLACO        CLOUDY    76  70  82 S17G25    29.92S
FALFURRIAS     PTSUNNY   75  70  84 SE15G21   29.93R
EDINBURG       CLOUDY    78  70  75 S15       29.94R
$$




USA.gov is the U.S. government's official web portal to all federal, state and local government web resources and services.